Regional Weather Roundup
Issued by NWS State College, PA

Home | Current Version | Previous Version | Text Only | Print | Product List | Glossary Off
Versions: 1 2 3 4 5 6 7 8 9 10 11 12 13 14 15 16 17 18 19 20 21 22 23 24 25 26 27 28 29 30 31 32 33 34 35 36 37 38 39 40 41 42 43 44 45 46 47 48 49 50

000
ASUS41 KCTP 121503
RWRCTP

REGIONAL WEATHER ROUNDUP
NATIONAL WEATHER SERVICE STATE COLLEGE PA
1000 AM EST FRI FEB 12 2016

Note: "fair" indicates few or no clouds below 12,000 feet with no
significant weather and/or obstructions to visibility.

* = STATION THAT DOES NOT REPORT PRECIPITATION /E.G. RAIN...SNOW...ETC/
    THUNDER OR FOG.

PAZ002>004-007>009-013>016-020>023-029>032-121600-
WESTERN PENNSYLVANIA

CITY           SKY/WX    TMP DP  RH WIND       PRES   REMARKS
ERIE           CLOUDY    17   6  62 S14       30.06F WCI   3
MEADVILLE      CLOUDY    14   6  70 SW9       30.03F WCI   2
FRANKLIN*      CLOUDY    12   3  67 SW10      30.06F WCI  -1
NEW CASTLE     FAIR      16   9  74 VRB6      30.11F WCI   7
BEAVER COUNTY  PTSUNNY   16   9  73 S10       30.10F WCI   3
BUTLER*        CLOUDY    12   9  85 S7        30.13F WCI   2
PITTSBURGH INT CLOUDY    15   7  70 S10       30.11F WCI   2
PITTSBURGH     CLOUDY    14   7  73 S8        30.11F WCI   3
INDIANA*       CLOUDY    12   9  85 SW7       30.14F WCI   2
LATROBE        CLOUDY    12   7  79 W7        30.15F WCI   2
WASHINGTON CO* CLOUDY    12   9  85 CALM      30.12F
$$

PAZ004>006-010>012-017>019-024>028-033>037-041-042-045-046-049>053-121600-
CENTRAL PENNSYLVANIA

CITY           SKY/WX    TMP DP  RH WIND       PRES   REMARKS
BRADFORD       CLOUDY    10   2  69 SW9       29.98F WCI  -3
DUBOIS         CLOUDY    10   4  76 SW12      30.04F WCI  -5
CLEARFIELD     CLOUDY     8   3  80 SW6       30.10F HAZE    WCI  -2
JOHNSTOWN      CLOUDY     8   1  73 SW8       30.03F WCI  -4
ALTOONA        CLOUDY    13   3  64 SW9       30.12F WCI   1
STATE COLLEGE  MOSUNNY   14   5  67 W12       30.13S WCI   0
WILLIAMSPORT   CLOUDY    13   4  67 CALM      30.19F
SELINSGROVE    CLOUDY    17   5  59 VRB7      30.22F WCI   8
FT INDIANTOWN  CLOUDY    16   5  61 SW7       30.23S WCI   6
CAPITAL CITY   MOSUNNY   19   3  49 W3        30.25F
HARRISBURG     CLOUDY    20   6  55 SW9       30.25S WCI   9
YORK           CLOUDY    18   5  57 VRB3      30.24F
$$

PAZ038>040-043-044-047-048-054-055-060>062-067>071-121600-
EASTERN PENNSYLVANIA

CITY           SKY/WX    TMP DP  RH WIND       PRES   REMARKS
SCRANTON       CLOUDY    14   3  61 SW6       30.13F WCI   5
MOUNT POCONO   CLOUDY    11  -1  58 W6        30.05F WCI   1
ALLENTOWN      SUNNY     19   3  49 SW7       30.22F WCI  10
QUAKERTOWN*    SUNNY     18   1  49 NW5       30.23S WCI  11
READING        CLOUDY    18   3  52 W7        30.24S WCI   9
LANCASTER      CLOUDY    11   4  73 CALM      30.25S
COATESVILLE    SUNNY     16   5  62 W7        30.24S WCI   6
POTTSTOWN      SUNNY     18   3  52 VRB5      30.26F WCI  11
BLUE BELL        N/A     21   3  45 CALM      30.25S
DOYLESTOWN     SUNNY     18   1  47 VRB5      30.22F WCI  11
WILLOW GROVE   NOT AVBL
NORTH PHILA    SUNNY     22   2  42 CALM      30.28F
PHILADELPHIA   PTSUNNY   21  -1  38 VRB3      30.29F
$$



USA.gov is the U.S. government's official web portal to all federal, state and local government web resources and services.